Time,TemperatureF,DewpointF,PressureIn,WindDirection,WindDirectionDegrees,WindSpeedMPH,WindSpeedGustMPH,Humidity,HourlyPrecipIn,Conditions,Clouds,dailyrainin,SolarRadiationWatts/m^2,SoftwareType,DateUTC
2013-10-28 00:12:00,35.0,34.0,-100.00,ESE,113,38.0,63.0,97,0.00,,,0.40,0.000000,,2013-10-28 08:12:00,
2013-10-28 00:22:00,35.0,34.0,-100.00,ESE,113,38.0,63.0,97,0.00,,,0.40,0.000000,,2013-10-28 08:22:00,
2013-10-28 00:32:00,35.0,34.0,-100.00,ESE,113,38.0,63.0,97,0.00,,,0.40,0.000000,,2013-10-28 08:32:00,
2013-10-28 00:42:00,35.0,34.0,-100.00,ESE,113,38.0,63.0,97,0.00,,,0.40,0.000000,,2013-10-28 08:42:00,
2013-10-28 00:43:00,35.0,34.0,-100.00,ESE,111,31.0,62.0,98,0.03,,,0.40,0.000000,,2013-10-28 08:43:00,
2013-10-28 01:11:00,35.0,34.0,-100.00,ESE,111,31.0,62.0,98,0.03,,,0.40,0.000000,,2013-10-28 09:11:00,
2013-10-28 01:21:00,35.0,34.0,-100.00,ESE,111,31.0,62.0,98,0.03,,,0.40,0.000000,,2013-10-28 09:21:00,
2013-10-28 01:33:00,35.0,34.0,-100.00,ESE,111,31.0,62.0,98,0.03,,,0.40,0.000000,,2013-10-28 09:33:00,
2013-10-28 01:43:00,35.0,34.0,-100.00,ESE,106,36.0,54.0,97,0.02,,,0.42,0.000000,,2013-10-28 09:43:00,
2013-10-28 02:13:00,35.0,34.0,-100.00,ESE,106,36.0,54.0,97,0.02,,,0.42,0.000000,,2013-10-28 10:13:00,
2013-10-28 02:23:00,35.0,34.0,-100.00,ESE,106,36.0,54.0,97,0.02,,,0.42,0.000000,,2013-10-28 10:23:00,
2013-10-28 02:33:00,35.0,34.0,-100.00,ESE,106,36.0,54.0,97,0.02,,,0.42,0.000000,,2013-10-28 10:33:00,
2013-10-28 03:12:00,35.0,35.0,-100.00,ESE,108,33.0,56.0,97,0.04,,,0.46,0.000000,,2013-10-28 11:12:00,
2013-10-28 03:22:00,35.0,35.0,-100.00,ESE,108,33.0,56.0,97,0.04,,,0.46,0.000000,,2013-10-28 11:22:00,
2013-10-28 03:33:00,35.0,35.0,-100.00,ESE,108,33.0,56.0,97,0.04,,,0.46,0.000000,,2013-10-28 11:33:00,
2013-10-28 03:42:00,35.0,35.0,-100.00,ESE,108,33.0,56.0,97,0.04,,,0.46,0.000000,,2013-10-28 11:42:00,
2013-10-28 04:11:00,35.0,34.0,-100.00,ESE,113,36.0,56.0,97,0.09,,,0.55,0.000000,,2013-10-28 12:11:00,
2013-10-28 04:21:00,35.0,34.0,-100.00,ESE,113,36.0,56.0,97,0.09,,,0.55,0.000000,,2013-10-28 12:21:00,
2013-10-28 04:32:00,35.0,34.0,-100.00,ESE,113,36.0,56.0,97,0.09,,,0.55,0.000000,,2013-10-28 12:32:00,
2013-10-28 04:41:00,35.0,34.0,-100.00,ESE,113,36.0,56.0,97,0.09,,,0.55,0.000000,,2013-10-28 12:41:00,
2013-10-28 05:11:00,33.0,33.0,-100.00,ESE,109,48.0,59.0,98,0.06,,,0.56,0.000000,,2013-10-28 13:11:00,
2013-10-28 05:22:00,33.0,33.0,-100.00,ESE,109,48.0,59.0,98,0.06,,,0.56,0.000000,,2013-10-28 13:22:00,
2013-10-28 05:32:00,33.0,33.0,-100.00,ESE,109,48.0,59.0,98,0.06,,,0.56,0.000000,,2013-10-28 13:32:00,
2013-10-28 05:42:00,33.0,33.0,-100.00,ESE,109,48.0,59.0,98,0.06,,,0.56,0.000000,,2013-10-28 13:42:00,
2013-10-28 06:11:00,33.0,32.0,-100.00,ESE,111,44.0,69.0,98,0.01,,,0.57,0.000000,,2013-10-28 14:11:00,
2013-10-28 06:21:00,33.0,32.0,-100.00,ESE,111,44.0,69.0,98,0.01,,,0.57,0.000000,,2013-10-28 14:21:00,
2013-10-28 06:32:00,33.0,32.0,-100.00,ESE,111,44.0,69.0,98,0.01,,,0.57,0.000000,,2013-10-28 14:32:00,
2013-10-28 06:41:00,33.0,32.0,-100.00,ESE,111,44.0,69.0,98,0.01,,,0.57,0.000000,,2013-10-28 14:41:00,
2013-10-28 06:43:00,33.0,33.0,-100.00,ESE,109,33.0,67.0,98,0.22,,,0.79,0.000000,,2013-10-28 14:43:00,
2013-10-28 07:11:00,33.0,33.0,-100.00,ESE,109,33.0,67.0,98,0.22,,,0.79,0.000000,,2013-10-28 15:11:00,
2013-10-28 07:21:00,33.0,33.0,-100.00,ESE,109,33.0,67.0,98,0.22,,,0.79,0.000000,,2013-10-28 15:21:00,
2013-10-28 07:33:00,33.0,33.0,-100.00,ESE,109,33.0,67.0,98,0.22,,,0.79,0.000000,,2013-10-28 15:33:00,
2013-10-28 07:43:00,34.0,34.0,-100.00,ESE,112,28.0,60.0,99,0.16,,,0.91,0.000000,,2013-10-28 15:43:00,
2013-10-28 08:13:00,34.0,34.0,-100.00,ESE,112,28.0,60.0,99,0.16,,,0.91,0.000000,,2013-10-28 16:13:00,
2013-10-28 08:23:00,34.0,34.0,-100.00,ESE,112,28.0,60.0,99,0.16,,,0.91,0.000000,,2013-10-28 16:23:00,
2013-10-28 08:32:00,34.0,34.0,-100.00,ESE,112,28.0,60.0,99,0.16,,,0.91,0.000000,,2013-10-28 16:32:00,
2013-10-28 09:12:00,33.0,33.0,-100.00,ESE,109,31.0,55.0,99,0.17,,,1.05,0.000000,,2013-10-28 17:12:00,
2013-10-28 09:22:00,33.0,33.0,-100.00,ESE,109,31.0,55.0,99,0.17,,,1.05,0.000000,,2013-10-28 17:22:00,
2013-10-28 09:33:00,33.0,33.0,-100.00,ESE,109,31.0,55.0,99,0.17,,,1.05,0.000000,,2013-10-28 17:33:00,
2013-10-28 09:42:00,33.0,33.0,-100.00,ESE,109,31.0,55.0,99,0.17,,,1.05,0.000000,,2013-10-28 17:42:00,
2013-10-28 10:12:00,35.0,34.0,-100.00,ESE,116,34.0,54.0,98,0.29,,,1.34,0.100000,,2013-10-28 18:12:00,
2013-10-28 10:21:00,35.0,34.0,-100.00,ESE,116,34.0,54.0,98,0.29,,,1.34,0.100000,,2013-10-28 18:21:00,
2013-10-28 10:32:00,35.0,34.0,-100.00,ESE,116,34.0,54.0,98,0.29,,,1.34,0.100000,,2013-10-28 18:32:00,
2013-10-28 10:42:00,35.0,34.0,-100.00,ESE,116,34.0,54.0,98,0.29,,,1.34,0.100000,,2013-10-28 18:42:00,
2013-10-28 11:11:00,34.0,34.0,-100.00,ESE,118,42.0,70.0,99,0.31,,,-99.99,7.100000,,2013-10-28 19:11:00,
2013-10-28 11:21:00,34.0,34.0,-100.00,ESE,118,42.0,70.0,99,0.31,,,-99.99,7.100000,,2013-10-28 19:21:00,
2013-10-28 11:33:00,34.0,34.0,-100.00,ESE,118,42.0,70.0,99,0.31,,,-99.99,7.100000,,2013-10-28 19:33:00,
2013-10-28 11:42:00,34.0,34.0,-100.00,ESE,118,42.0,70.0,99,0.31,,,-99.99,7.100000,,2013-10-28 19:42:00,
2013-10-28 12:11:00,34.0,34.0,-100.00,ESE,120,43.0,84.0,98,0.13,,,1.73,19.400000,,2013-10-28 20:11:00,
2013-10-28 12:21:00,34.0,34.0,-100.00,ESE,120,43.0,84.0,98,0.13,,,1.73,19.400000,,2013-10-28 20:21:00,
2013-10-28 12:32:00,34.0,34.0,-100.00,ESE,120,43.0,84.0,98,0.13,,,1.73,19.400000,,2013-10-28 20:32:00,
2013-10-28 12:42:00,34.0,34.0,-100.00,ESE,120,43.0,84.0,98,0.13,,,1.73,19.400000,,2013-10-28 20:42:00,
2013-10-28 12:43:00,33.0,33.0,-100.00,ESE,123,32.0,76.0,98,0.03,,,1.72,35.900002,,2013-10-28 20:43:00,
2013-10-28 13:11:00,33.0,33.0,-100.00,ESE,123,32.0,76.0,98,0.03,,,1.72,35.900002,,2013-10-28 21:11:00,
2013-10-28 13:21:00,33.0,33.0,-100.00,ESE,123,32.0,76.0,98,0.03,,,1.72,35.900002,,2013-10-28 21:21:00,
2013-10-28 13:34:00,33.0,33.0,-100.00,ESE,123,32.0,76.0,98,0.03,,,1.72,35.900002,,2013-10-28 21:34:00,
2013-10-28 13:43:00,33.0,32.0,-100.00,South,175,13.0,54.0,96,0.01,,,1.72,132.800003,,2013-10-28 21:43:00,
2013-10-28 14:13:00,33.0,32.0,-100.00,South,175,13.0,54.0,96,0.01,,,1.72,132.800003,,2013-10-28 22:13:00,
2013-10-28 14:23:00,33.0,32.0,-100.00,South,175,13.0,54.0,96,0.01,,,1.72,132.800003,,2013-10-28 22:23:00,
2013-10-28 14:34:00,33.0,32.0,-100.00,South,175,13.0,54.0,96,0.01,,,1.72,132.800003,,2013-10-28 22:34:00,
2013-10-28 15:12:00,33.0,32.0,-100.00,SSW,201,14.0,41.0,95,0.05,,,1.77,174.500000,,2013-10-28 23:12:00,
2013-10-28 15:22:00,33.0,32.0,-100.00,SSW,201,14.0,41.0,95,0.05,,,1.77,174.500000,,2013-10-28 23:22:00,
2013-10-28 15:34:00,33.0,32.0,-100.00,SSW,201,14.0,41.0,95,0.05,,,1.77,174.500000,,2013-10-28 23:34:00,
2013-10-28 15:42:00,33.0,32.0,-100.00,SSW,201,14.0,41.0,95,0.05,,,1.77,174.500000,,2013-10-28 23:42:00,
2013-10-28 16:11:00,33.0,32.0,-100.00,SSE,158,14.0,22.0,97,0.00,,,1.77,113.800003,,2013-10-29 00:11:00,
2013-10-28 16:21:00,33.0,32.0,-100.00,SSE,158,14.0,22.0,97,0.00,,,1.77,113.800003,,2013-10-29 00:21:00,
2013-10-28 16:32:00,33.0,32.0,-100.00,SSE,158,14.0,22.0,97,0.00,,,1.77,113.800003,,2013-10-29 00:32:00,
2013-10-28 16:41:00,33.0,32.0,-100.00,SSE,158,14.0,22.0,97,0.00,,,1.77,113.800003,,2013-10-29 00:41:00,
2013-10-28 17:11:00,32.0,31.0,-100.00,SE,143,7.0,26.0,93,0.00,,,1.73,71.500000,,2013-10-29 01:11:00,
2013-10-28 17:21:00,32.0,31.0,-100.00,SE,143,7.0,26.0,93,0.00,,,1.73,71.500000,,2013-10-29 01:21:00,
2013-10-28 17:31:00,32.0,31.0,-100.00,SE,143,7.0,26.0,93,0.00,,,1.73,71.500000,,2013-10-29 01:31:00,
2013-10-28 17:41:00,32.0,31.0,-100.00,SE,143,7.0,26.0,93,0.00,,,1.73,71.500000,,2013-10-29 01:41:00,
2013-10-28 17:43:00,31.0,25.0,-100.00,SSE,166,13.0,21.0,78,0.00,,,1.67,35.900002,,2013-10-29 01:43:00,
2013-10-28 18:11:00,31.0,25.0,-100.00,SSE,166,13.0,21.0,78,0.00,,,1.67,35.900002,,2013-10-29 02:11:00,
2013-10-28 18:21:00,31.0,25.0,-100.00,SSE,166,13.0,21.0,78,0.00,,,1.67,35.900002,,2013-10-29 02:21:00,
2013-10-28 18:34:00,31.0,25.0,-100.00,SSE,166,13.0,21.0,78,0.00,,,1.67,35.900002,,2013-10-29 02:34:00,
2013-10-28 18:43:00,31.0,24.0,-100.00,SSE,165,18.0,23.0,77,0.00,,,1.66,7.800000,,2013-10-29 02:43:00,
2013-10-28 19:14:00,31.0,24.0,-100.00,SSE,165,18.0,23.0,77,0.00,,,1.66,7.800000,,2013-10-29 03:14:00,
2013-10-28 19:27:00,31.0,24.0,-100.00,SSE,165,18.0,23.0,77,0.00,,,1.66,7.800000,,2013-10-29 03:27:00,
2013-10-28 19:40:00,-999.0,-99.9,-100.00,SSE,165,18.0,23.0,77,0.00,,,1.66,7.800000,,2013-10-29 03:40:00,
2013-10-28 19:43:00,29.0,26.0,-100.00,SSE,167,13.0,25.0,88,0.00,,,1.66,0.000000,,2013-10-29 03:43:00,
2013-10-28 20:13:00,29.0,26.0,-100.00,SSE,167,13.0,25.0,88,0.00,,,1.66,0.000000,,2013-10-29 04:13:00,
2013-10-28 20:24:00,29.0,26.0,-100.00,SSE,167,13.0,25.0,88,0.00,,,1.66,0.000000,,2013-10-29 04:24:00,
2013-10-28 20:39:00,29.0,26.0,-100.00,SSE,167,13.0,25.0,88,0.00,,,1.66,0.000000,,2013-10-29 04:39:00,
2013-10-28 20:43:00,29.0,27.0,-100.00,SSE,162,14.0,21.0,94,0.00,,,1.63,0.000000,,2013-10-29 04:43:00,
2013-10-28 21:18:00,29.0,27.0,-100.00,SSE,162,14.0,21.0,94,0.00,,,1.63,0.000000,,2013-10-29 05:18:00,
2013-10-28 21:33:00,29.0,27.0,-100.00,SSE,162,14.0,21.0,94,0.00,,,1.63,0.000000,,2013-10-29 05:33:00,
2013-10-28 21:43:00,28.0,25.0,-100.00,SSE,165,16.0,23.0,88,0.00,,,1.63,0.000000,,2013-10-29 05:43:00,
2013-10-28 22:16:00,28.0,25.0,-100.00,SSE,165,16.0,23.0,88,0.00,,,1.63,0.000000,,2013-10-29 06:16:00,
2013-10-28 22:25:00,28.0,25.0,-100.00,SSE,165,16.0,23.0,88,0.00,,,1.63,0.000000,,2013-10-29 06:25:00,
2013-10-28 22:34:00,28.0,25.0,-100.00,SSE,165,16.0,23.0,88,0.00,,,1.63,0.000000,,2013-10-29 06:34:00,
2013-10-28 22:43:00,28.0,24.0,-100.00,South,174,13.0,22.0,85,0.00,,,1.62,0.000000,,2013-10-29 06:43:00,
2013-10-28 23:11:00,28.0,24.0,-100.00,South,174,13.0,22.0,85,0.00,,,1.62,0.000000,,2013-10-29 07:11:00,
2013-10-28 23:24:00,28.0,24.0,-100.00,South,174,13.0,22.0,85,0.00,,,1.62,0.000000,,2013-10-29 07:24:00,
2013-10-28 23:31:00,28.0,24.0,-100.00,South,174,13.0,22.0,85,0.00,,,1.62,0.000000,,2013-10-29 07:31:00,